Printer-friendly version

IAU Minor Planet Center

Minor Planet Center

MPEC 2000-T10: 2000 TJ1

The following Minor Planet Electronic Circular may be linked-to from your own Web pages, but must not otherwise be redistributed electronically.


Read MPEC 2000-T09 Read MPEC 2000-T11


M.P.E.C. 2000-T10                                Issued 2000 Oct. 4, 12:22 UT

     The Minor Planet Electronic Circulars contain information on unusual
         minor planets and routine data on comets.  They are published
   on behalf of Commission 20 of the International Astronomical Union by the
          Minor Planet Center, Smithsonian Astrophysical Observatory,
                          Cambridge, MA 02138, U.S.A.

             Prepared using the Tamkin Foundation Computer Network

                              MPC@CFA.HARVARD.EDU
          URL http://cfa-www.harvard.edu/iau/mpc.html  ISSN 1523-6714

                                   2000 TJ1

Observations:
     K00T01J* C2000 10 01.25502 01 18 23.72 +07 39 40.6          17.1        704
     K00T01J  C2000 10 01.27013 01 18 22.12 +07 37 01.7          17.3        704
     K00T01J  C2000 10 01.28524 01 18 20.52 +07 34 23.1          17.4        704
     K00T01J  C2000 10 01.31151 01 18 17.72 +07 29 46.7          17.4        704
     K00T01J  C2000 10 01.32665 01 18 16.11 +07 27 07.8          17.8        704
     K00T01J  C2000 10 02.14642 01 17 02.14 +05 03 10.3          17.6 V      649
     K00T01J  C2000 10 02.14848 01 17 01.95 +05 02 46.3          17.6 V      649
     K00T01J  C2000 10 02.15193 01 17 01.63 +05 02 11.1          17.8 V      649
     K00T01J  C2000 10 02.21409 01 16 55.17 +04 51 17.8                      739
     K00T01J  C2000 10 02.21782 01 16 54.95 +04 50 39.0                      739
     K00T01J  C2000 10 02.22022 01 16 54.54 +04 50 11.9          18.2 V      739
     K00T01J  C2000 10 02.26080 01 16 50.75 +04 43 10.1          17.5        704
     K00T01J  C2000 10 02.27555 01 16 49.21 +04 40 34.9          18.0        704
     K00T01J  C2000 10 02.28849 01 16 47.82 +04 38 18.6          17.3        704
     K00T01J  C2000 10 02.29098 01 16 47.58 +04 37 52.7          17.9        704
     K00T01J SC2000 10 02.30497 01 16 46.66 +04 35 21.8                      670
     K00T01J  C2000 10 02.30557 01 16 46.02 +04 35 19.0          17.5        704
     K00T01J SC2000 10 02.30651 01 16 46.34 +04 35 09.4                      670
     K00T01J  C2000 10 02.30735 01 16 45.80 +04 35 00.0          17.3        704
     K00T01J  C2000 10 02.32041 01 16 44.40 +04 32 42.5          17.7        704
     K00T01J  C2000 10 02.32288 01 16 44.13 +04 32 16.7          17.4        704
     K00T01J  C2000 10 02.33878 01 16 42.43 +04 29 29.2          17.4        704
     K00T01J  C2000 10 02.35449 01 16 40.75 +04 26 44.1          17.5        704
     K00T01J  C2000 10 02.37306 01 16 38.81 +04 23 28.5          17.4        704
     K00T01J  C2000 10 02.38801 01 16 37.18 +04 20 51.1          17.4        704
     K00T01J  C2000 10 02.40348 01 16 35.59 +04 18 07.9          17.4        704
     K00T01J  C2000 10 02.41841 01 16 34.04 +04 15 30.6          17.5        704
     K00T01J  C2000 10 02.43342 01 16 32.46 +04 12 52.3          17.7        704
     K00T01J  C2000 10 03.24603 01 15 17.23 +01 51 28.7                      860
     K00T01J  C2000 10 03.24607 01 15 19.69 +01 50 50.7          16.9        704
     K00T01J  C2000 10 03.24691 01 15 17.16 +01 51 19.1          17.0 V      860
     K00T01J  C2000 10 03.24870 01 15 17.01 +01 51 00.5          17.1 V      860
     K00T01J  C2000 10 03.24961 01 15 19.28 +01 50 14.0          16.7        704
     K00T01J  C2000 10 03.25167 01 15 19.07 +01 49 52.3          16.8        704
     K00T01J  C2000 10 03.26102 01 15 18.09 +01 48 14.5          17.0        704
     K00T01J  C2000 10 03.26525 01 15 17.64 +01 47 30.3          16.7        704
     K00T01J  C2000 10 03.26719 01 15 17.42 +01 47 10.1          16.8        704
     K00T01J  C2000 10 03.27600 01 15 16.50 +01 45 38.3          16.8        704
     K00T01J  C2000 10 03.28077 01 15 15.99 +01 44 48.6          16.9        704
     K00T01J  C2000 10 03.28302 01 15 15.74 +01 44 24.9          16.9        704
     K00T01J  C2000 10 03.30623 01 15 13.27 +01 40 22.3          17.2        704
     K00T01J  C2000 10 03.30908 01 15 12.95 +01 39 52.5          16.8        704
     K00T01J  C2000 10 03.32270 01 15 11.49 +01 37 30.7          16.9        704
     K00T01J  C2000 10 03.32657 01 15 11.10 +01 36 49.6          17.3        704
     K00T01J  C2000 10 03.96047 01 14 12.93 -00 13 13.0          17.7        163
     K00T01J  C2000 10 03.96083 01 14 12.89 -00 13 17.8                      163
     K00T01J  C2000 10 03.96230 01 14 12.74 -00 13 33.2                      163
     K00T01J  C2000 10 03.96267 01 14 12.72 -00 13 36.3                      163
     K00T01J  C2000 10 03.96304 01 14 12.70 -00 13 39.3                      163
     K00T01J  C2000 10 03.96340 01 14 12.65 -00 13 44.1                      163
     K00T01J  C2000 10 03.96378 01 14 12.62 -00 13 47.2                      163

Observer details:
163 Roeser Observatory, Luxembourg.  Observer M. Dawson.  0.457-m f/4.5
    reflector + CCD.
649 Powell Observatory, Louisburg.  Observers  M. Kirk, J. Alburty.  Measurer
    D. Probert.  0.30-m Schmidt-Cassegrain + CCD.
670 Camarillo.  Observer J. E. Rogers.  0.30-m f/6.7 Helin Telescope + CCD.
704 Lincoln Laboratory ETS, New Mexico.  Observers M. Blythe, F. Shelly,
    M. Bezpalko, M. Elowitz, R. Huber, L. Manguso.  Measurers J. Stuart,
    R. Sayer, J. B. Evans, H. Viggh.  1.0-m f/2.15 reflector + CCD.
739 Sunflower Observatory, Olathe.  Observer L. Robinson.  0.25-m
    Schmidt-Cassegrain + CCD.
860 Valinhos.  Observer P. R. Holvorcem.  0.36-m f/3.6 Schmidt-Cassegrain
    + CCD.

Orbital elements:
2000 TJ1
Epoch 2000 Oct. 3.0 TT = JDT 2451820.5                  Spahr
M 123.14165              (2000.0)            P               Q
n   0.79273123     Peri.   50.80528     -0.51244105     +0.85099536
a   1.1562509      Node   190.46537     -0.84181923     -0.47140719
e   0.0824201      Incl.   39.25573     +0.16954218     +0.23147819
P   1.24           H   19.8           G   0.15
From 51 observations 2000 Oct. 1-3.

Ephemeris:
2000 TJ1                 a,e,i = 1.16, 0.08, 39                  q = 1.0610
Date    TT    R. A. (2000) Decl.     Delta      r     Elong.  Phase     V
2000 09 23    01 30.23   +29 52.1    0.238    1.203   143.4    29.8    18.4
2000 10 03    01 15.69   +02 34.2    0.215    1.213   170.3     8.0    17.5
2000 10 13    01 00.86   -22 46.9    0.254    1.223   149.3    24.6    18.4
2000 10 23    00 49.40   -37 36.4    0.333    1.231   128.9    39.0    19.4
2000 11 02    00 43.27   -44 55.5    0.427    1.238   115.6    46.3    20.2
2000 11 12    00 42.85   -48 17.3    0.525    1.244   106.3    49.8    20.7
2000 11 22    00 47.35   -49 32.6    0.620    1.248    99.3    51.4    21.1
2000 12 02    00 55.90   -49 33.3    0.708    1.250    93.7    51.9    21.4
2000 12 12    01 07.72   -48 46.8    0.787    1.252    89.2    51.9    21.7
2000 12 22    01 22.12   -47 26.9    0.856    1.251    85.4    51.6    21.9
2001 01 01    01 38.69   -45 40.8    0.913    1.249    82.3    51.3    22.0

Timothy B. Spahr             (C) Copyright 2000 MPC           M.P.E.C. 2000-T10

Read MPEC 2000-T09 Read MPEC 2000-T11


Our Web policy. Index to the CBAT/MPC/ICQ pages.


Valid HTML 4.01!